Precipitable_Water
0.42 0.42 0.43 0.42 0.42 0.42 0.42 0.43 0.44 0.48 0.52 0.55 0.58 0.60 0.60 0.60 0.60 0.59 0.58 0.57 0.58 0.58 0.58 0.55 0.52 0.48 0.48 0.49 0.48 0.47 0.45 0.37 0.33 0.34 0.33 0.30 0.36 0.42 0.36 0.29 0.30 0.29 0.26 0.24 0.30 0.32 0.31 0.35 0.30 0.31 0.26 0.23 0.20 0.19 0.26 0.25 0.26 0.23 0.16 0.14 0.14 0.12 0.11 0.13 0.13 0.12 0.15 0.18 0.20 0.21 0.19 0.16 0.23 0.43 0.54 0.55 0.46 0.57 0.64 0.79 0.97 0.87 1.06 1.20 1.21 1.23 1.19 1.22
0.43 0.42 0.42 0.42 0.41 0.42 0.42 0.41 0.42 0.44 0.47 0.51 0.54 0.57 0.59 0.61 0.61 0.60 0.59 0.58 0.58 0.59 0.59 0.58 0.55 0.51 0.48 0.47 0.47 0.46 0.42 0.37 0.29 0.31 0.26 0.38 0.38 0.34 0.33 0.29 0.28 0.28 0.26 0.23 0.27 0.28 0.28 0.27 0.27 0.28 0.22 0.18 0.20 0.18 0.25 0.25 0.25 0.21 0.15 0.13 0.12 0.14 0.15 0.15 0.15 0.14 0.15 0.19 0.22 0.21 0.19 0.16 0.21 0.33 0.50 0.60 0.63 0.66 0.53 0.71 0.72 0.85 0.86 1.09 1.15 1.18 1.07 1.08
0.43 0.42 0.42 0.42 0.41 0.41 0.41 0.41 0.41 0.41 0.42 0.46 0.50 0.54 0.57 0.60 0.62 0.61 0.59 0.59 0.59 0.60 0.60 0.59 0.58 0.55 0.51 0.47 0.45 0.44 0.41 0.32 0.34 0.25 0.32 0.39 0.39 0.35 0.32 0.28 0.27 0.27 0.24 0.24 0.28 0.29 0.27 0.26 0.27 0.25 0.20 0.18 0.18 0.17 0.23 0.25 0.21 0.20 0.16 0.13 0.12 0.15 0.17 0.19 0.18 0.18 0.18 0.21 0.22 0.20 0.19 0.18 0.20 0.27 0.54 0.54 0.61 0.70 0.64 0.69 0.80 0.76 0.78 0.82 0.99 0.95 0.95 1.06
0.42 0.43 0.42 0.42 0.41 0.41 0.40 0.40 0.40 0.40 0.41 0.42 0.44 0.48 0.52 0.57 0.60 0.60 0.60 0.59 0.59 0.59 0.60 0.61 0.59 0.57 0.55 0.50 0.47 0.48 0.40 0.34 0.26 0.38 0.48 0.42 0.43 0.38 0.30 0.28 0.28 0.27 0.24 0.33 0.28 0.26 0.26 0.26 0.25 0.23 0.19 0.16 0.19 0.19 0.22 0.23 0.19 0.19 0.16 0.14 0.14 0.15 0.16 0.19 0.20 0.18 0.18 0.20 0.21 0.20 0.19 0.16 0.19 0.21 0.37 0.52 0.55 0.59 0.59 0.64 0.73 0.77 0.67 0.90 0.94 0.93 0.96 0.99
0.42 0.43 0.43 0.42 0.42 0.42 0.40 0.40 0.40 0.40 0.39 0.41 0.41 0.42 0.47 0.53 0.57 0.59 0.60 0.60 0.59 0.59 0.59 0.61 0.60 0.58 0.56 0.55 0.48 0.48 0.39 0.20 0.41 0.56 0.52 0.47 0.46 0.39 0.31 0.28 0.29 0.27 0.29 0.37 0.27 0.25 0.24 0.23 0.23 0.21 0.18 0.15 0.18 0.20 0.20 0.23 0.23 0.20 0.14 0.14 0.17 0.20 0.19 0.20 0.18 0.17 0.17 0.19 0.19 0.18 0.15 0.19 0.21 0.20 0.28 0.40 0.44 0.45 0.54 0.56 0.60 0.82 0.91 0.95 0.97 0.86 0.97 0.97
0.42 0.42 0.43 0.43 0.42 0.42 0.42 0.41 0.40 0.39 0.39 0.39 0.40 0.40 0.42 0.47 0.52 0.56 0.59 0.60 0.60 0.59 0.58 0.59 0.61 0.58 0.57 0.55 0.52 0.45 0.30 0.21 0.51 0.58 0.56 0.54 0.48 0.42 0.33 0.30 0.29 0.31 0.33 0.31 0.24 0.23 0.22 0.21 0.21 0.19 0.15 0.16 0.15 0.16 0.18 0.21 0.25 0.17 0.16 0.16 0.16 0.20 0.19 0.22 0.19 0.19 0.18 0.16 0.15 0.16 0.18 0.20 0.18 0.20 0.23 0.29 0.40 0.44 0.57 0.62 0.60 0.68 0.72 1.00 0.99 0.97 0.89 0.92
0.42 0.42 0.42 0.42 0.42 0.42 0.42 0.42 0.42 0.40 0.40 0.39 0.40 0.40 0.40 0.42 0.46 0.51 0.56 0.58 0.59 0.59 0.59 0.57 0.60 0.60 0.55 0.54 0.52 0.40 0.31 0.26 0.36 0.55 0.57 0.54 0.52 0.44 0.40 0.34 0.33 0.33 0.34 0.28 0.22 0.20 0.18 0.18 0.19 0.18 0.15 0.15 0.15 0.17 0.20 0.20 0.23 0.19 0.16 0.20 0.18 0.19 0.19 0.22 0.20 0.20 0.17 0.15 0.16 0.18 0.20 0.18 0.18 0.16 0.21 0.23 0.31 0.34 0.60 0.61 0.63 0.77 0.99 0.89 0.91 1.01 0.87 0.86
0.42 0.42 0.41 0.41 0.41 0.41 0.41 0.42 0.43 0.43 0.42 0.41 0.40 0.40 0.40 0.40 0.42 0.47 0.51 0.54 0.57 0.58 0.58 0.58 0.57 0.59 0.57 0.47 0.39 0.42 0.34 0.30 0.63 0.56 0.50 0.53 0.51 0.43 0.43 0.40 0.35 0.33 0.34 0.27 0.23 0.20 0.19 0.18 0.17 0.17 0.15 0.14 0.15 0.16 0.21 0.19 0.19 0.19 0.16 0.18 0.19 0.18 0.19 0.20 0.19 0.18 0.17 0.16 0.16 0.18 0.17 0.17 0.18 0.19 0.20 0.20 0.23 0.29 0.45 0.49 0.45 0.51 0.95 0.87 0.90 0.88 0.81 0.84
0.42 0.42 0.42 0.41 0.41 0.41 0.41 0.41 0.42 0.43 0.44 0.42 0.42 0.42 0.41 0.40 0.40 0.42 0.45 0.49 0.53 0.55 0.57 0.57 0.55 0.58 0.57 0.47 0.34 0.29 0.30 0.53 0.58 0.47 0.53 0.47 0.47 0.46 0.42 0.39 0.38 0.37 0.35 0.30 0.27 0.23 0.20 0.19 0.19 0.17 0.15 0.14 0.16 0.16 0.19 0.18 0.16 0.20 0.19 0.17 0.18 0.21 0.21 0.19 0.17 0.16 0.16 0.17 0.16 0.15 0.16 0.18 0.19 0.21 0.18 0.20 0.23 0.35 0.41 0.37 0.39 0.56 0.94 0.80 0.89 0.81 0.78 0.81
0.42 0.42 0.42 0.41 0.41 0.41 0.41 0.41 0.41 0.42 0.44 0.44 0.42 0.42 0.42 0.41 0.40 0.40 0.43 0.46 0.49 0.51 0.53 0.54 0.56 0.55 0.49 0.42 0.39 0.25 0.40 0.54 0.50 0.57 0.53 0.49 0.48 0.43 0.43 0.37 0.35 0.36 0.31 0.29 0.27 0.24 0.20 0.22 0.19 0.20 0.19 0.19 0.18 0.17 0.19 0.18 0.20 0.24 0.21 0.16 0.16 0.19 0.20 0.20 0.16 0.16 0.17 0.16 0.15 0.14 0.15 0.16 0.19 0.18 0.16 0.19 0.22 0.35 0.32 0.36 0.39 0.62 0.62 0.77 0.86 0.81 0.78 0.85
0.42 0.42 0.42 0.42 0.41 0.40 0.41 0.41 0.41 0.41 0.43 0.44 0.44 0.42 0.42 0.42 0.40 0.40 0.41 0.43 0.45 0.48 0.49 0.52 0.54 0.52 0.44 0.49 0.31 0.26 0.45 0.52 0.49 0.58 0.60 0.49 0.47 0.39 0.37 0.39 0.36 0.32 0.29 0.29 0.26 0.24 0.23 0.23 0.22 0.23 0.20 0.19 0.21 0.19 0.19 0.21 0.22 0.20 0.20 0.17 0.15 0.17 0.20 0.19 0.17 0.16 0.16 0.15 0.15 0.16 0.14 0.16 0.18 0.18 0.16 0.19 0.23 0.38 0.28 0.35 0.44 0.65 0.68 0.68 0.84 0.77 0.76 0.85
0.42 0.42 0.42 0.41 0.41 0.40 0.40 0.41 0.41 0.41 0.41 0.44 0.45 0.44 0.44 0.44 0.44 0.42 0.41 0.42 0.44 0.47 0.49 0.51 0.53 0.52 0.46 0.41 0.34 0.32 0.49 0.46 0.48 0.58 0.59 0.51 0.43 0.42 0.44 0.41 0.37 0.34 0.31 0.29 0.25 0.25 0.25 0.24 0.25 0.23 0.17 0.18 0.17 0.20 0.18 0.21 0.20 0.18 0.17 0.15 0.16 0.16 0.16 0.17 0.15 0.16 0.16 0.15 0.17 0.16 0.14 0.13 0.15 0.15 0.16 0.21 0.26 0.36 0.29 0.37 0.47 0.62 0.80 0.77 0.82 0.76 0.75 0.83
0.40 0.41 0.41 0.41 0.41 0.40 0.40 0.40 0.41 0.41 0.40 0.42 0.44 0.46 0.46 0.47 0.48 0.47 0.47 0.46 0.51 0.52 0.55 0.57 0.57 0.59 0.48 0.29 0.34 0.44 0.46 0.44 0.41 0.50 0.57 0.58 0.49 0.47 0.46 0.42 0.37 0.36 0.35 0.32 0.28 0.25 0.24 0.25 0.30 0.22 0.24 0.25 0.19 0.15 0.18 0.21 0.18 0.17 0.16 0.14 0.13 0.13 0.12 0.14 0.15 0.15 0.15 0.15 0.16 0.16 0.11 0.11 0.13 0.15 0.16 0.19 0.40 0.37 0.33 0.38 0.47 0.67 0.76 0.74 0.74 0.76 0.75 0.84
0.38 0.39 0.39 0.40 0.40 0.40 0.40 0.40 0.39 0.40 0.41 0.40 0.41 0.44 0.46 0.47 0.49 0.50 0.50 0.50 0.54 0.57 0.57 0.61 0.64 0.56 0.46 0.32 0.47 0.48 0.42 0.37 0.41 0.41 0.50 0.55 0.48 0.43 0.41 0.40 0.38 0.37 0.38 0.34 0.30 0.26 0.23 0.27 0.29 0.28 0.32 0.24 0.22 0.24 0.18 0.17 0.17 0.12 0.13 0.14 0.11 0.11 0.11 0.14 0.14 0.14 0.13 0.16 0.16 0.17 0.11 0.12 0.14 0.15 0.16 0.16 0.35 0.35 0.33 0.40 0.51 0.69 0.76 0.71 0.72 0.73 0.77 0.81
0.39 0.38 0.38 0.38 0.39 0.39 0.39 0.39 0.39 0.39 0.40 0.40 0.39 0.40 0.42 0.44 0.48 0.51 0.54 0.53 0.58 0.60 0.63 0.65 0.63 0.56 0.43 0.39 0.51 0.52 0.45 0.41 0.33 0.37 0.48 0.49 0.45 0.39 0.36 0.35 0.32 0.33 0.34 0.34 0.30 0.27 0.27 0.29 0.27 0.26 0.23 0.23 0.28 0.21 0.17 0.16 0.15 0.13 0.11 0.10 0.11 0.10 0.13 0.15 0.16 0.14 0.12 0.15 0.17 0.15 0.11 0.12 0.14 0.16 0.18 0.17 0.30 0.34 0.32 0.38 0.50 0.69 0.75 0.71 0.71 0.73 0.76 0.79
0.40 0.39 0.39 0.38 0.38 0.38 0.39 0.39 0.39 0.39 0.39 0.39 0.38 0.37 0.40 0.44 0.47 0.50 0.56 0.58 0.64 0.65 0.69 0.58 0.61 0.54 0.43 0.30 0.50 0.59 0.43 0.30 0.27 0.37 0.48 0.50 0.45 0.38 0.36 0.32 0.30 0.30 0.31 0.28 0.29 0.29 0.29 0.29 0.22 0.22 0.23 0.20 0.19 0.16 0.15 0.14 0.14 0.13 0.11 0.12 0.11 0.10 0.10 0.13 0.15 0.16 0.15 0.14 0.16 0.14 0.11 0.12 0.11 0.16 0.16 0.26 0.32 0.30 0.30 0.32 0.49 0.66 0.70 0.72 0.72 0.75 0.75 0.79
0.38 0.39 0.39 0.39 0.39 0.39 0.38 0.38 0.38 0.39 0.38 0.38 0.37 0.37 0.39 0.43 0.49 0.52 0.56 0.61 0.63 0.69 0.64 0.54 0.58 0.59 0.32 0.45 0.51 0.35 0.35 0.33 0.38 0.37 0.47 0.48 0.44 0.37 0.32 0.29 0.25 0.27 0.27 0.27 0.28 0.28 0.27 0.23 0.25 0.25 0.27 0.22 0.17 0.15 0.13 0.13 0.14 0.13 0.12 0.12 0.15 0.11 0.10 0.12 0.17 0.18 0.17 0.14 0.15 0.16 0.12 0.12 0.18 0.22 0.35 0.39 0.32 0.31 0.29 0.31 0.50 0.65 0.71 0.71 0.73 0.73 0.71 0.75
0.38 0.37 0.37 0.37 0.38 0.39 0.39 0.38 0.38 0.38 0.38 0.36 0.36 0.36 0.37 0.44 0.51 0.53 0.54 0.59 0.67 0.64 0.61 0.64 0.55 0.45 0.32 0.41 0.28 0.36 0.40 0.40 0.35 0.45 0.48 0.47 0.44 0.34 0.29 0.25 0.25 0.24 0.25 0.25 0.27 0.23 0.26 0.20 0.23 0.19 0.19 0.18 0.17 0.15 0.13 0.13 0.14 0.16 0.14 0.11 0.13 0.15 0.13 0.12 0.15 0.19 0.18 0.15 0.17 0.18 0.15 0.13 0.16 0.27 0.36 0.38 0.31 0.30 0.29 0.31 0.54 0.67 0.68 0.67 0.70 0.69 0.70 0.71
0.38 0.37 0.36 0.36 0.36 0.37 0.38 0.38 0.38 0.38 0.37 0.35 0.38 0.43 0.43 0.46 0.49 0.52 0.49 0.55 0.46 0.40 0.33 0.51 0.46 0.22 0.29 0.35 0.36 0.38 0.37 0.41 0.41 0.45 0.42 0.41 0.41 0.31 0.26 0.25 0.23 0.22 0.21 0.21 0.23 0.22 0.25 0.22 0.24 0.19 0.17 0.15 0.17 0.16 0.15 0.18 0.18 0.18 0.19 0.14 0.14 0.16 0.15 0.12 0.16 0.22 0.22 0.19 0.15 0.16 0.17 0.17 0.14 0.17 0.28 0.40 0.36 0.31 0.31 0.35 0.62 0.69 0.67 0.64 0.66 0.66 0.69 0.69
0.38 0.37 0.36 0.36 0.36 0.36 0.35 0.36 0.38 0.38 0.39 0.32 0.34 0.40 0.39 0.40 0.51 0.49 0.61 0.58 0.42 0.32 0.28 0.34 0.40 0.34 0.35 0.36 0.34 0.38 0.46 0.39 0.32 0.36 0.46 0.44 0.34 0.24 0.22 0.22 0.20 0.23 0.23 0.18 0.24 0.22 0.26 0.18 0.19 0.15 0.19 0.20 0.19 0.19 0.19 0.23 0.21 0.22 0.20 0.18 0.14 0.17 0.17 0.15 0.19 0.27 0.27 0.22 0.19 0.16 0.16 0.19 0.20 0.18 0.19 0.39 0.44 0.35 0.34 0.39 0.63 0.66 0.63 0.61 0.65 0.67 0.69 0.71
0.38 0.37 0.37 0.36 0.36 0.35 0.35 0.35 0.36 0.37 0.38 0.34 0.33 0.27 0.20 0.22 0.20 0.29 0.42 0.40 0.39 0.37 0.34 0.32 0.33 0.32 0.33 0.42 0.44 0.37 0.33 0.32 0.33 0.37 0.43 0.43 0.31 0.23 0.20 0.19 0.19 0.18 0.22 0.24 0.26 0.27 0.26 0.18 0.20 0.19 0.21 0.25 0.23 0.19 0.22 0.24 0.23 0.21 0.20 0.18 0.16 0.17 0.17 0.17 0.16 0.26 0.30 0.23 0.22 0.22 0.22 0.20 0.19 0.20 0.21 0.41 0.49 0.39 0.36 0.42 0.58 0.61 0.67 0.61 0.67 0.67 0.69 0.77
0.38 0.38 0.37 0.36 0.36 0.36 0.35 0.35 0.35 0.35 0.35 0.33 0.31 0.27 0.26 0.29 0.38 0.38 0.29 0.18 0.28 0.36 0.38 0.38 0.37 0.32 0.35 0.38 0.45 0.42 0.37 0.31 0.27 0.37 0.45 0.37 0.27 0.18 0.21 0.18 0.18 0.18 0.23 0.25 0.29 0.26 0.19 0.17 0.22 0.23 0.25 0.30 0.29 0.26 0.25 0.23 0.22 0.20 0.18 0.17 0.16 0.17 0.19 0.21 0.19 0.27 0.28 0.24 0.18 0.23 0.22 0.21 0.21 0.22 0.29 0.51 0.50 0.45 0.42 0.48 0.58 0.58 0.63 0.59 0.63 0.67 0.70 0.77
0.37 0.36 0.36 0.36 0.36 0.36 0.35 0.35 0.35 0.34 0.30 0.27 0.24 0.25 0.26 0.38 0.40 0.40 0.35 0.28 0.21 0.32 0.35 0.32 0.31 0.31 0.31 0.37 0.40 0.41 0.31 0.29 0.28 0.32 0.39 0.32 0.26 0.22 0.24 0.18 0.19 0.21 0.25 0.25 0.25 0.24 0.19 0.16 0.22 0.26 0.28 0.28 0.27 0.25 0.22 0.21 0.20 0.18 0.15 0.16 0.15 0.18 0.16 0.18 0.26 0.28 0.28 0.24 0.19 0.24 0.25 0.23 0.23 0.28 0.40 0.50 0.46 0.50 0.53 0.55 0.60 0.63 0.61 0.56 0.67 0.69 0.66 0.75
0.37 0.36 0.35 0.35 0.35 0.34 0.35 0.34 0.33 0.30 0.27 0.24 0.25 0.26 0.35 0.32 0.36 0.36 0.34 0.26 0.22 0.23 0.30 0.36 0.35 0.32 0.34 0.30 0.38 0.35 0.26 0.30 0.34 0.33 0.42 0.32 0.26 0.25 0.25 0.21 0.23 0.23 0.24 0.24 0.24 0.24 0.22 0.28 0.25 0.25 0.28 0.26 0.22 0.21 0.18 0.16 0.15 0.16 0.18 0.17 0.18 0.19 0.18 0.17 0.25 0.30 0.28 0.26 0.22 0.30 0.25 0.21 0.26 0.30 0.36 0.47 0.58 0.61 0.61 0.61 0.65 0.65 0.70 0.73 0.76 0.71 0.73 0.79
0.39 0.37 0.36 0.36 0.34 0.35 0.30 0.31 0.26 0.32 0.37 0.34 0.26 0.28 0.29 0.32 0.41 0.41 0.35 0.29 0.30 0.27 0.38 0.31 0.29 0.29 0.37 0.43 0.45 0.30 0.28 0.31 0.31 0.41 0.43 0.34 0.30 0.24 0.25 0.26 0.24 0.23 0.25 0.27 0.23 0.21 0.24 0.30 0.33 0.28 0.27 0.22 0.18 0.18 0.17 0.17 0.15 0.16 0.17 0.20 0.22 0.24 0.23 0.21 0.28 0.31 0.28 0.23 0.21 0.19 0.16 0.18 0.31 0.32 0.34 0.47 0.47 0.50 0.55 0.56 0.63 0.67 0.71 0.73 0.67 0.65 0.76 0.85
0.40 0.39 0.38 0.38 0.37 0.34 0.31 0.31 0.46 0.34 0.23 0.20 0.23 0.37 0.38 0.42 0.41 0.45 0.41 0.27 0.17 0.30 0.34 0.24 0.35 0.32 0.42 0.34 0.37 0.29 0.32 0.25 0.31 0.40 0.44 0.39 0.38 0.27 0.26 0.25 0.23 0.22 0.24 0.25 0.22 0.21 0.23 0.33 0.27 0.24 0.23 0.20 0.18 0.20 0.22 0.18 0.16 0.16 0.17 0.17 0.25 0.29 0.26 0.24 0.26 0.25 0.23 0.21 0.27 0.19 0.17 0.18 0.28 0.29 0.29 0.35 0.38 0.37 0.48 0.54 0.63 0.71 0.73 0.79 0.71 0.72 0.79 0.87
0.40 0.39 0.40 0.39 0.38 0.37 0.23 0.26 0.46 0.26 0.16 0.27 0.32 0.35 0.36 0.37 0.50 0.51 0.35 0.25 0.19 0.30 0.27 0.39 0.30 0.46 0.40 0.36 0.29 0.29 0.20 0.22 0.33 0.41 0.42 0.42 0.36 0.34 0.24 0.22 0.22 0.24 0.26 0.25 0.22 0.18 0.21 0.28 0.25 0.22 0.21 0.20 0.18 0.18 0.24 0.19 0.18 0.20 0.28 0.23 0.24 0.28 0.26 0.26 0.26 0.24 0.23 0.27 0.39 0.27 0.22 0.21 0.23 0.27 0.31 0.44 0.40 0.38 0.53 0.55 0.57 0.55 0.73 0.68 0.69 0.79 0.88 0.97
0.39 0.40 0.39 0.39 0.39 0.38 0.30 0.29 0.23 0.19 0.18 0.27 0.36 0.34 0.33 0.37 0.56 0.57 0.27 0.11 0.09 0.30 0.27 0.36 0.36 0.51 0.43 0.40 0.30 0.23 0.30 0.33 0.25 0.33 0.40 0.43 0.40 0.31 0.24 0.24 0.22 0.20 0.25 0.23 0.17 0.21 0.21 0.21 0.23 0.20 0.21 0.21 0.20 0.21 0.26 0.22 0.19 0.29 0.34 0.30 0.22 0.22 0.24 0.24 0.23 0.24 0.24 0.26 0.25 0.27 0.23 0.21 0.25 0.29 0.39 0.44 0.40 0.46 0.47 0.45 0.51 0.66 0.71 0.78 0.71 0.92 0.99 1.05
0.38 0.39 0.39 0.39 0.37 0.36 0.38 0.31 0.28 0.24 0.29 0.36 0.33 0.30 0.30 0.46 0.49 0.39 0.28 0.18 0.25 0.27 0.46 0.30 0.43 0.32 0.35 0.36 0.30 0.27 0.30 0.32 0.25 0.33 0.37 0.42 0.40 0.34 0.22 0.25 0.25 0.22 0.23 0.23 0.19 0.28 0.26 0.23 0.24 0.21 0.20 0.20 0.22 0.24 0.26 0.23 0.21 0.30 0.35 0.32 0.28 0.26 0.25 0.24 0.23 0.23 0.26 0.24 0.23 0.26 0.25 0.19 0.22 0.33 0.37 0.39 0.36 0.37 0.46 0.51 0.61 0.75 0.69 0.75 0.84 0.99 0.94 1.00
0.38 0.38 0.38 0.37 0.33 0.36 0.41 0.39 0.29 0.30 0.34 0.34 0.31 0.27 0.30 0.39 0.40 0.25 0.20 0.14 0.24 0.18 0.28 0.36 0.33 0.30 0.33 0.27 0.27 0.27 0.26 0.30 0.35 0.40 0.38 0.33 0.35 0.36 0.31 0.29 0.26 0.24 0.22 0.23 0.21 0.26 0.32 0.29 0.30 0.23 0.21 0.27 0.30 0.28 0.28 0.24 0.24 0.40 0.32 0.29 0.27 0.25 0.23 0.24 0.25 0.26 0.25 0.21 0.22 0.26 0.29 0.24 0.19 0.28 0.32 0.30 0.29 0.37 0.45 0.57 0.63 0.65 0.66 0.69 0.83 0.92 0.92 0.94
0.36 0.36 0.36 0.37 0.26 0.32 0.33 0.26 0.40 0.43 0.41 0.41 0.35 0.28 0.30 0.36 0.25 0.21 0.14 0.17 0.23 0.23 0.31 0.29 0.31 0.36 0.32 0.26 0.23 0.26 0.26 0.32 0.32 0.36 0.33 0.34 0.33 0.30 0.30 0.25 0.28 0.25 0.24 0.23 0.20 0.22 0.25 0.31 0.27 0.26 0.29 0.31 0.33 0.32 0.31 0.28 0.25 0.28 0.30 0.24 0.23 0.21 0.22 0.22 0.21 0.23 0.20 0.20 0.23 0.25 0.28 0.30 0.20 0.28 0.33 0.38 0.42 0.36 0.46 0.50 0.52 0.53 0.53 0.56 0.66 0.86 0.90 0.95
0.33 0.34 0.34 0.32 0.31 0.34 0.21 0.25 0.40 0.37 0.43 0.44 0.33 0.25 0.29 0.22 0.26 0.18 0.17 0.26 0.13 0.20 0.23 0.25 0.30 0.30 0.31 0.32 0.26 0.25 0.25 0.31 0.33 0.32 0.31 0.29 0.29 0.25 0.23 0.22 0.22 0.19 0.19 0.20 0.18 0.21 0.22 0.24 0.26 0.25 0.27 0.28 0.27 0.25 0.23 0.22 0.26 0.25 0.27 0.24 0.20 0.20 0.20 0.18 0.19 0.17 0.17 0.18 0.25 0.27 0.29 0.26 0.24 0.33 0.36 0.44 0.49 0.58 0.59 0.58 0.53 0.51 0.56 0.63 0.67 0.68 0.88 0.99
0.32 0.31 0.31 0.30 0.31 0.27 0.27 0.29 0.36 0.39 0.39 0.38 0.28 0.27 0.25 0.19 0.16 0.20 0.20 0.24 0.16 0.23 0.26 0.29 0.30 0.28 0.31 0.31 0.27 0.27 0.28 0.28 0.33 0.31 0.32 0.32 0.29 0.27 0.26 0.24 0.27 0.22 0.18 0.21 0.20 0.19 0.20 0.25 0.24 0.24 0.26 0.26 0.26 0.20 0.23 0.19 0.21 0.22 0.23 0.23 0.21 0.20 0.18 0.16 0.18 0.18 0.18 0.20 0.29 0.29 0.33 0.25 0.29 0.33 0.42 0.53 0.58 0.58 0.64 0.60 0.57 0.63 0.66 0.71 0.69 0.73 0.82 0.91
0.29 0.29 0.26 0.36 0.34 0.34 0.37 0.43 0.43 0.43 0.32 0.29 0.23 0.22 0.24 0.19 0.16 0.26 0.21 0.20 0.19 0.24 0.28 0.28 0.29 0.28 0.25 0.22 0.28 0.31 0.26 0.29 0.32 0.31 0.32 0.31 0.28 0.27 0.26 0.25 0.29 0.26 0.23 0.26 0.20 0.21 0.18 0.18 0.21 0.24 0.23 0.28 0.24 0.24 0.28 0.26 0.24 0.22 0.25 0.26 0.24 0.22 0.21 0.17 0.18 0.18 0.17 0.20 0.26 0.30 0.26 0.23 0.21 0.35 0.49 0.53 0.59 0.62 0.60 0.57 0.59 0.60 0.65 0.67 0.67 0.69 0.70 0.77
0.28 0.29 0.32 0.37 0.36 0.38 0.42 0.44 0.44 0.45 0.32 0.23 0.18 0.18 0.15 0.16 0.21 0.20 0.20 0.20 0.20 0.21 0.25 0.28 0.24 0.23 0.22 0.22 0.27 0.32 0.31 0.27 0.32 0.31 0.31 0.30 0.29 0.28 0.29 0.26 0.28 0.30 0.27 0.23 0.26 0.24 0.21 0.21 0.25 0.26 0.27 0.30 0.24 0.24 0.31 0.31 0.28 0.28 0.27 0.28 0.25 0.25 0.29 0.22 0.28 0.24 0.23 0.23 0.25 0.28 0.24 0.22 0.24 0.46 0.52 0.58 0.57 0.60 0.58 0.61 0.62 0.62 0.65 0.65 0.64 0.65 0.68 0.73
0.29 0.41 0.35 0.35 0.39 0.51 0.45 0.45 0.46 0.43 0.25 0.18 0.14 0.12 0.14 0.18 0.18 0.21 0.21 0.24 0.21 0.18 0.20 0.24 0.22 0.20 0.19 0.22 0.26 0.29 0.35 0.30 0.30 0.30 0.31 0.30 0.33 0.31 0.34 0.34 0.30 0.30 0.28 0.23 0.28 0.23 0.25 0.23 0.27 0.28 0.28 0.28 0.28 0.27 0.28 0.32 0.24 0.29 0.28 0.24 0.25 0.30 0.27 0.24 0.24 0.29 0.27 0.22 0.22 0.30 0.28 0.25 0.33 0.35 0.40 0.44 0.53 0.57 0.57 0.57 0.63 0.63 0.64 0.67 0.63 0.64 0.67 0.71
0.33 0.36 0.37 0.40 0.43 0.44 0.43 0.44 0.44 0.39 0.24 0.17 0.12 0.10 0.14 0.19 0.23 0.23 0.22 0.21 0.22 0.20 0.20 0.17 0.18 0.17 0.18 0.18 0.24 0.27 0.31 0.30 0.31 0.28 0.28 0.31 0.30 0.34 0.35 0.36 0.37 0.34 0.30 0.30 0.28 0.31 0.25 0.24 0.27 0.27 0.26 0.31 0.33 0.31 0.30 0.31 0.32 0.36 0.28 0.28 0.32 0.31 0.29 0.27 0.21 0.24 0.19 0.17 0.18 0.22 0.23 0.24 0.24 0.23 0.38 0.42 0.46 0.47 0.54 0.53 0.60 0.64 0.67 0.64 0.65 0.69 0.71 0.75
0.29 0.36 0.37 0.40 0.40 0.41 0.44 0.46 0.45 0.35 0.22 0.14 0.11 0.11 0.16 0.16 0.24 0.23 0.25 0.23 0.24 0.25 0.21 0.18 0.17 0.18 0.17 0.18 0.21 0.26 0.31 0.26 0.32 0.29 0.26 0.30 0.29 0.36 0.36 0.36 0.39 0.36 0.34 0.33 0.30 0.34 0.32 0.25 0.29 0.30 0.30 0.32 0.32 0.31 0.29 0.31 0.31 0.29 0.30 0.39 0.28 0.23 0.20 0.24 0.22 0.17 0.17 0.16 0.16 0.19 0.23 0.23 0.24 0.25 0.34 0.36 0.39 0.52 0.50 0.49 0.52 0.60 0.65 0.67 0.68 0.69 0.73 0.74
0.32 0.34 0.39 0.52 0.51 0.43 0.46 0.49 0.41 0.33 0.18 0.11 0.10 0.11 0.13 0.17 0.21 0.23 0.23 0.26 0.27 0.20 0.14 0.13 0.14 0.15 0.18 0.18 0.22 0.24 0.29 0.26 0.31 0.30 0.26 0.32 0.29 0.39 0.38 0.39 0.36 0.39 0.38 0.36 0.30 0.34 0.38 0.27 0.30 0.34 0.30 0.31 0.30 0.28 0.23 0.25 0.28 0.29 0.31 0.29 0.32 0.28 0.26 0.22 0.22 0.21 0.20 0.18 0.18 0.18 0.22 0.21 0.25 0.29 0.37 0.36 0.42 0.55 0.48 0.49 0.51 0.53 0.57 0.65 0.65 0.66 0.69 0.68
0.40 0.39 0.40 0.56 0.51 0.44 0.50 0.45 0.37 0.29 0.18 0.10 0.10 0.11 0.16 0.14 0.17 0.23 0.28 0.27 0.25 0.18 0.18 0.17 0.14 0.16 0.17 0.18 0.22 0.24 0.27 0.30 0.32 0.32 0.31 0.32 0.32 0.43 0.37 0.40 0.39 0.38 0.38 0.38 0.35 0.35 0.33 0.37 0.27 0.33 0.35 0.31 0.25 0.26 0.24 0.25 0.26 0.25 0.23 0.24 0.27 0.27 0.31 0.28 0.32 0.26 0.22 0.19 0.19 0.18 0.18 0.22 0.35 0.36 0.33 0.40 0.58 0.59 0.58 0.61 0.62 0.61 0.61 0.68 0.69 0.67 0.66 0.68
0.42 0.34 0.43 0.57 0.46 0.47 0.47 0.40 0.30 0.22 0.18 0.15 0.13 0.13 0.14 0.15 0.19 0.21 0.26 0.30 0.28 0.23 0.18 0.17 0.18 0.17 0.21 0.20 0.17 0.24 0.27 0.29 0.30 0.32 0.36 0.36 0.39 0.33 0.39 0.38 0.39 0.37 0.39 0.37 0.34 0.35 0.30 0.33 0.28 0.34 0.32 0.28 0.27 0.30 0.28 0.27 0.28 0.30 0.28 0.25 0.25 0.25 0.23 0.20 0.20 0.30 0.29 0.23 0.21 0.20 0.19 0.30 0.41 0.53 0.43 0.47 0.56 0.55 0.64 0.61 0.69 0.67 0.65 0.68 0.68 0.67 0.67 0.68
0.36 0.25 0.36 0.45 0.48 0.47 0.37 0.30 0.29 0.30 0.23 0.19 0.14 0.13 0.13 0.19 0.21 0.23 0.23 0.26 0.26 0.23 0.22 0.23 0.25 0.23 0.21 0.22 0.23 0.20 0.21 0.25 0.28 0.29 0.35 0.36 0.48 0.47 0.45 0.45 0.39 0.39 0.35 0.33 0.33 0.48 0.42 0.38 0.33 0.29 0.30 0.33 0.32 0.32 0.32 0.31 0.31 0.30 0.31 0.28 0.29 0.27 0.27 0.24 0.18 0.21 0.24 0.25 0.26 0.24 0.22 0.30 0.45 0.52 0.51 0.50 0.51 0.55 0.63 0.62 0.59 0.62 0.63 0.66 0.68 0.69 0.69 0.70
0.29 0.29 0.43 0.50 0.53 0.42 0.30 0.25 0.31 0.29 0.27 0.26 0.24 0.18 0.18 0.21 0.22 0.23 0.23 0.25 0.25 0.22 0.22 0.21 0.22 0.22 0.25 0.25 0.22 0.21 0.21 0.22 0.26 0.26 0.32 0.36 0.39 0.47 0.50 0.46 0.43 0.39 0.39 0.40 0.40 0.44 0.44 0.33 0.31 0.31 0.34 0.35 0.35 0.34 0.34 0.33 0.31 0.29 0.30 0.33 0.32 0.28 0.29 0.26 0.26 0.27 0.26 0.26 0.24 0.22 0.19 0.28 0.45 0.52 0.52 0.49 0.52 0.56 0.62 0.59 0.58 0.57 0.59 0.61 0.68 0.69 0.69 0.70
0.31 0.31 0.38 0.51 0.52 0.50 0.32 0.24 0.24 0.25 0.29 0.30 0.29 0.27 0.26 0.21 0.21 0.20 0.18 0.23 0.26 0.22 0.16 0.22 0.22 0.19 0.20 0.21 0.23 0.21 0.21 0.19 0.25 0.27 0.29 0.40 0.40 0.48 0.50 0.48 0.47 0.43 0.39 0.39 0.33 0.43 0.30 0.34 0.33 0.30 0.28 0.31 0.31 0.31 0.30 0.32 0.31 0.28 0.28 0.30 0.31 0.32 0.32 0.33 0.33 0.35 0.26 0.25 0.27 0.24 0.19 0.29 0.46 0.49 0.53 0.49 0.51 0.49 0.58 0.62 0.65 0.61 0.63 0.65 0.68 0.75 0.74 0.75
0.32 0.40 0.32 0.39 0.48 0.48 0.33 0.38 0.34 0.32 0.30 0.28 0.30 0.26 0.24 0.22 0.24 0.26 0.24 0.22 0.24 0.25 0.23 0.20 0.21 0.23 0.20 0.21 0.20 0.21 0.21 0.22 0.24 0.27 0.28 0.34 0.37 0.42 0.44 0.44 0.44 0.44 0.45 0.46 0.43 0.48 0.36 0.36 0.33 0.26 0.23 0.22 0.22 0.22 0.23 0.25 0.27 0.28 0.30 0.31 0.33 0.31 0.31 0.30 0.26 0.29 0.24 0.27 0.27 0.25 0.28 0.38 0.48 0.50 0.49 0.50 0.48 0.58 0.72 0.72 0.69 0.69 0.71 0.64 0.69 0.74 0.72 0.74
0.21 0.17 0.20 0.32 0.41 0.43 0.45 0.43 0.39 0.36 0.32 0.32 0.27 0.29 0.28 0.24 0.28 0.25 0.28 0.30 0.30 0.28 0.28 0.29 0.28 0.26 0.22 0.18 0.18 0.18 0.18 0.20 0.19 0.26 0.29 0.27 0.32 0.36 0.39 0.42 0.40 0.42 0.47 0.44 0.44 0.42 0.38 0.41 0.37 0.33 0.31 0.32 0.33 0.33 0.36 0.37 0.33 0.28 0.28 0.30 0.32 0.33 0.33 0.33 0.31 0.27 0.23 0.26 0.25 0.30 0.34 0.38 0.43 0.50 0.53 0.55 0.56 0.64 0.66 0.67 0.65 0.63 0.65 0.68 0.68 0.71 0.70 0.69
0.28 0.18 0.22 0.20 0.42 0.39 0.40 0.41 0.35 0.33 0.32 0.35 0.27 0.29 0.28 0.27 0.30 0.26 0.25 0.24 0.30 0.26 0.25 0.22 0.24 0.20 0.16 0.16 0.18 0.17 0.18 0.19 0.22 0.20 0.28 0.32 0.34 0.36 0.38 0.44 0.46 0.46 0.43 0.41 0.43 0.42 0.38 0.33 0.35 0.35 0.36 0.39 0.42 0.40 0.39 0.38 0.34 0.32 0.31 0.32 0.33 0.34 0.34 0.33 0.29 0.27 0.35 0.27 0.24 0.36 0.43 0.39 0.43 0.52 0.55 0.57 0.58 0.61 0.67 0.66 0.65 0.65 0.66 0.67 0.70 0.69 0.69 0.67
0.21 0.19 0.30 0.32 0.34 0.30 0.37 0.36 0.39 0.32 0.33 0.32 0.32 0.30 0.28 0.28 0.29 0.28 0.25 0.24 0.29 0.27 0.21 0.23 0.17 0.19 0.21 0.20 0.20 0.17 0.19 0.19 0.21 0.19 0.28 0.32 0.33 0.33 0.33 0.37 0.41 0.43 0.40 0.40 0.44 0.38 0.35 0.30 0.37 0.36 0.36 0.38 0.41 0.44 0.42 0.38 0.36 0.37 0.37 0.38 0.36 0.38 0.36 0.30 0.32 0.35 0.37 0.29 0.29 0.37 0.42 0.44 0.46 0.49 0.54 0.57 0.60 0.62 0.64 0.65 0.68 0.70 0.72 0.71 0.68 0.66 0.68 0.68
0.26 0.30 0.32 0.43 0.40 0.42 0.44 0.42 0.44 0.43 0.38 0.37 0.34 0.34 0.30 0.31 0.30 0.32 0.32 0.26 0.25 0.28 0.26 0.21 0.21 0.21 0.20 0.22 0.23 0.23 0.25 0.20 0.20 0.29 0.32 0.34 0.34 0.33 0.30 0.31 0.37 0.40 0.41 0.41 0.39 0.41 0.36 0.34 0.40 0.38 0.36 0.37 0.38 0.41 0.42 0.40 0.38 0.38 0.39 0.37 0.38 0.37 0.37 0.38 0.37 0.37 0.35 0.33 0.39 0.42 0.46 0.46 0.49 0.47 0.51 0.56 0.60 0.61 0.68 0.72 0.75 0.74 0.69 0.67 0.70 0.68 0.66 0.66
0.16 0.30 0.29 0.41 0.39 0.42 0.46 0.47 0.44 0.42 0.35 0.37 0.32 0.31 0.33 0.30 0.28 0.29 0.30 0.33 0.27 0.30 0.32 0.25 0.23 0.25 0.25 0.24 0.27 0.32 0.32 0.33 0.35 0.28 0.32 0.33 0.32 0.35 0.35 0.34 0.33 0.37 0.39 0.38 0.37 0.42 0.35 0.35 0.37 0.37 0.35 0.35 0.38 0.40 0.42 0.42 0.40 0.36 0.38 0.37 0.37 0.37 0.35 0.37 0.36 0.36 0.35 0.36 0.36 0.40 0.39 0.40 0.47 0.55 0.53 0.61 0.62 0.66 0.67 0.66 0.70 0.73 0.71 0.74 0.74 0.71 0.70 0.65
0.25 0.31 0.37 0.35 0.28 0.35 0.41 0.45 0.42 0.39 0.34 0.34 0.32 0.32 0.33 0.32 0.30 0.29 0.27 0.30 0.30 0.28 0.30 0.31 0.33 0.31 0.29 0.28 0.28 0.26 0.29 0.31 0.30 0.29 0.30 0.28 0.25 0.35 0.33 0.34 0.33 0.31 0.34 0.38 0.36 0.39 0.37 0.36 0.38 0.36 0.30 0.31 0.35 0.37 0.39 0.41 0.41 0.39 0.38 0.39 0.38 0.36 0.32 0.35 0.34 0.37 0.34 0.37 0.37 0.33 0.31 0.38 0.44 0.50 0.54 0.57 0.60 0.61 0.59 0.60 0.61 0.63 0.68 0.71 0.72 0.75 0.73 0.71
0.36 0.31 0.38 0.37 0.23 0.32 0.34 0.38 0.41 0.39 0.32 0.35 0.36 0.33 0.32 0.30 0.34 0.36 0.26 0.30 0.32 0.31 0.31 0.32 0.33 0.34 0.30 0.26 0.24 0.26 0.29 0.30 0.30 0.30 0.28 0.29 0.29 0.30 0.31 0.31 0.33 0.35 0.31 0.34 0.41 0.38 0.36 0.36 0.33 0.32 0.27 0.28 0.35 0.36 0.36 0.37 0.38 0.34 0.34 0.38 0.40 0.40 0.41 0.41 0.40 0.40 0.38 0.38 0.33 0.31 0.34 0.45 0.44 0.45 0.43 0.45 0.47 0.48 0.49 0.52 0.59 0.62 0.65 0.64 0.62 0.67 0.73 0.73
Wind_Speed
17 17 18 18 19 19 19 20 20 20 20 20 20 20 20 20 19 19 19 19 19 19 19 19 19 19 19 20 20 20 21 22 22 22 23 23 21 21 21 21 21 23 22 22 21 22 22 22 22 22 21 21 21 20 20 20 19 18 18 18 17 17 16 14 13 13 12 10 10 10 12 14 11 11 12 12 15 14 15 16 14 14 13 11 10 12 14 14
17 17 17 18 18 18 19 19 19 20 20 20 20 20 20 20 19 19 19 18 18 18 18 18 18 18 19 19 19 19 20 21 22 23 24 22 20 20 20 20 21 22 22 22 22 22 22 22 22 22 21 21 20 21 21 20 20 19 18 18 18 17 15 13 13 12 12 11 9 8 11 12 11 11 11 12 13 13 14 15 15 14 13 12 11 12 13 13
16 17 17 17 18 18 18 19 19 19 19 20 20 20 20 20 19 19 19 18 18 18 18 18 18 18 18 18 18 18 19 20 22 22 21 20 19 19 19 19 20 21 21 21 21 22 22 21 21 21 21 21 20 21 21 20 21 20 19 19 18 18 15 14 15 14 13 12 11 9 10 12 11 10 11 11 12 13 13 13 14 14 14 14 13 13 13 13
16 16 17 17 17 18 18 18 18 19 19 19 20 20 20 20 20 19 19 19 18 18 18 18 18 17 17 17 17 17 18 19 19 17 15 17 17 18 18 18 20 20 21 20 20 21 21 21 21 21 21 21 21 21 21 20 20 20 21 20 18 18 17 15 16 17 17 15 13 11 11 12 12 11 12 12 11 12 12 12 14 13 13 15 14 13 13 13
16 16 16 17 17 17 17 18 18 18 19 19 19 19 20 20 20 19 19 19 19 18 18 18 18 18 17 17 17 17 16 15 14 13 13 15 16 16 17 18 19 20 20 20 20 21 21 21 21 22 22 21 22 22 22 22 21 20 22 22 21 18 17 16 15 17 17 16 16 14 14 12 11 13 13 12 12 11 11 11 13 13 14 14 13 13 12 13
16 16 16 17 17 17 17 17 18 18 18 18 19 19 19 20 20 19 19 19 19 18 18 18 18 18 17 17 17 17 16 14 13 13 13 14 15 16 16 17 19 19 19 19 19 20 20 21 21 22 22 21 23 22 22 23 22 21 21 22 24 21 18 17 16 16 17 17 17 16 15 13 13 14 14 14 12 10 11 11 11 12 13 14 13 13 13 13
16 16 17 17 17 17 17 17 17 18 18 18 18 19 19 19 19 19 19 19 19 19 18 18 18 18 17 17 17 17 18 18 15 14 14 14 14 15 15 16 18 19 19 19 19 20 20 21 22 21 21 21 22 23 22 23 24 23 22 21 23 23 21 20 18 17 17 18 18 17 15 15 16 14 14 17 14 10 12 12 12 12 13 14 14 14 14 14
16 16 17 17 17 17 17 17 17 17 17 18 18 18 19 19 19 19 19 19 19 19 18 18 18 17 17 17 17 17 18 17 15 14 15 15 15 15 15 16 18 19 19 19 19 19 19 21 21 21 21 21 22 22 22 23 24 24 23 22 21 21 22 22 21 19 19 18 19 18 17 17 17 16 14 16 16 13 13 13 14 14 13 14 15 15 14 14
16 16 16 17 17 17 17 17 17 17 17 17 18 18 18 18 19 19 19 19 19 19 18 18 18 17 17 17 17 17 16 15 15 15 15 15 16 15 16 16 18 19 19 19 19 18 19 19 21 21 20 20 21 22 22 23 22 22 25 24 21 20 21 21 21 21 20 19 19 20 19 19 19 17 16 17 17 14 15 14 14 15 13 14 15 15 14 15
16 16 17 17 17 17 17 17 17 17 17 17 17 17 17 17 18 18 19 19 19 19 18 18 17 17 17 17 17 16 14 14 15 16 16 16 16 16 17 17 17 18 18 18 18 19 19 18 19 20 20 20 20 21 22 22 20 19 23 25 24 22 21 21 22 21 20 20 20 20 19 20 20 18 17 18 18 15 15 15 15 15 15 15 15 14 14 15
17 17 17 17 17 17 17 17 17 17 17 17 17 17 17 17 17 17 18 18 18 18 18 18 17 17 17 17 18 17 14 15 15 15 16 16 16 17 17 17 17 18 18 17 18 18 19 18 18 18 18 19 20 20 22 22 21 20 19 23 25 23 22 22 21 21 20 20 20 20 20 21 20 18 18 19 18 17 17 16 16 16 16 17 16 14 14 15
17 17 17 17 17 17 17 17 17 17 17 17 17 16 16 16 16 16 17 17 17 17 17 17 17 17 17 17 19 18 16 16 15 15 16 17 17 17 17 17 17 18 17 17 17 18 19 18 17 18 16 16 18 19 20 22 23 21 19 20 23 23 24 23 22 21 21 20 20 20 20 21 21 19 19 19 17 17 17 17 17 16 16 17 15 14 15 15
18 18 18 17 17 17 17 17 17 17 17 17 17 16 16 16 16 16 16 16 17 17 17 17 17 17 17 17 18 17 17 16 16 16 16 17 17 17 17 17 17 18 17 17 17 17 18 17 17 19 16 16 17 15 16 19 21 21 20 20 20 21 23 24 23 22 22 20 19 19 18 20 21 20 21 20 18 17 17 17 17 17 16 16 15 15 15 15
18 18 18 18 17 17 17 17 17 17 17 17 17 16 16 16 16 16 16 16 16 17 17 16 16 16 16 17 17 16 16 16 16 17 16 17 17 17 17 17 17 17 16 16 16 16 17 17 17 18 17 17 15 14 15 17 18 19 19 20 20 19 20 22 23 23 22 20 18 19 17 18 19 20 23 22 20 19 18 17 17 17 16 16 16 16 15 15
18 18 18 18 18 18 18 17 17 17 17 17 17 17 17 16 16 16 15 15 16 16 16 16 16 15 16 17 16 15 15 17 17 18 17 17 17 17 17 17 17 17 16 16 15 15 16 16 17 16 16 17 16 14 16 16 16 17 18 18 19 19 18 19 22 22 21 19 19 20 18 16 17 18 21 22 20 19 19 18 18 17 17 16 16 16 15 15
18 18 18 18 18 18 18 18 17 17 17 17 17 17 16 16 15 15 15 15 15 15 14 14 14 15 15 14 13 13 15 16 17 18 17 17 17 16 16 16 16 16 15 15 15 15 16 16 16 16 15 17 16 15 15 15 15 16 17 17 18 19 18 16 18 20 21 19 20 20 18 16 15 14 16 19 18 19 19 19 19 18 17 17 16 16 16 15
19 18 18 18 18 18 18 18 17 17 17 17 17 17 16 15 15 14 14 14 14 14 14 14 13 14 15 13 12 14 14 14 15 17 17 17 17 15 15 16 15 15 15 15 15 15 16 15 15 15 15 15 16 15 15 15 15 15 16 17 17 18 18 16 16 18 21 20 19 19 19 17 14 11 14 16 18 18 19 19 19 18 18 17 16 16 16 16
19 19 19 19 18 18 18 18 18 17 17 17 17 16 15 15 14 14 14 13 13 13 13 14 13 13 14 14 13 11 12 12 13 15 17 17 16 15 15 15 15 15 15 15 15 15 15 15 15 14 14 15 15 15 16 15 14 14 16 16 16 16 18 17 15 16 20 20 19 18 19 20 17 14 14 16 17 18 19 19 19 19 18 18 17 16 16 16
20 19 19 19 19 19 19 18 18 18 17 17 17 16 15 15 14 14 14 12 12 12 13 13 14 13 12 13 13 11 11 11 13 15 16 16 16 15 15 15 15 16 16 14 15 16 15 14 15 14 14 15 15 16 16 14 13 14 15 16 16 15 17 18 13 13 17 18 20 20 18 19 21 19 17 17 17 18 19 19 18 18 18 18 18 17 16 17
20 20 20 20 19 19 19 19 18 18 17 16 16 15 14 14 13 12 12 13 14 15 16 15 16 17 15 13 14 12 12 12 14 15 16 16 15 16 16 15 15 16 16 14 14 15 15 14 15 15 15 15 16 18 16 13 11 11 12 15 17 15 15 18 15 12 15 16 17 19 19 18 20 21 20 18 18 18 19 19 18 18 19 19 19 17 17 17
21 21 21 21 20 20 19 19 19 18 17 16 15 15 14 14 13 12 12 14 16 17 19 18 18 18 17 15 14 13 13 13 15 15 16 16 15 16 16 16 16 16 16 15 14 14 15 15 15 15 15 14 15 16 15 12 12 12 11 12 15 15 14 18 17 12 13 16 16 18 20 19 19 20 19 17 17 17 19 20 19 19 19 19 19 18 17 17
22 22 22 22 21 21 20 20 19 19 18 17 16 16 15 14 14 13 14 16 17 17 18 18 19 19 18 17 16 14 14 14 16 16 16 17 17 16 16 16 17 15 16 16 14 13 14 15 16 16 14 12 12 13 13 14 14 14 13 12 14 14 14 15 14 12 13 14 16 17 18 19 19 17 16 16 16 16 18 19 19 19 19 19 19 19 18 17
22 22 22 22 22 22 21 21 20 19 18 17 17 17 16 15 14 14 15 16 16 17 17 17 18 19 18 18 17 16 16 15 16 17 17 18 18 17 16 16 17 16 16 16 15 13 13 14 17 16 13 13 14 13 13 14 15 15 15 14 13 14 15 14 13 15 15 14 15 16 16 17 17 16 15 16 16 15 16 17 17 18 18 19 19 18 17 18
21 21 21 21 22 22 21 22 21 20 18 18 18 18 17 16 15 15 15 15 16 16 16 15 16 17 17 16 17 17 17 16 16 17 19 19 18 17 16 17 17 16 16 17 17 16 13 11 14 15 13 14 15 14 14 14 14 16 16 16 14 14 16 13 11 13 14 15 16 15 14 16 16 16 17 16 15 15 15 16 17 17 18 18 18 18 18 18
21 21 21 21 21 21 21 21 19 18 17 18 18 17 17 16 15 15 14 14 15 14 13 13 13 15 15 14 15 17 18 17 17 17 19 20 19 17 16 16 16 16 17 17 17 17 15 11 11 13 13 14 15 14 15 15 14 15 17 18 15 13 14 13 11 11 12 13 16 17 15 14 15 17 18 16 16 17 16 16 16 16 17 17 17 18 18 18
20 20 20 20 20 21 20 18 16 16 18 18 17 15 15 15 14 14 14 13 14 12 11 11 11 12 13 14 15 16 17 18 18 17 19 20 20 17 16 15 16 16 16 16 15 15 15 12 12 15 15 15 15 14 15 15 15 14 15 18 18 13 13 13 13 13 12 10 12 16 15 12 13 16 17 17 17 17 16 15 16 17 17 17 17 18 18 18
20 19 20 20 20 19 18 17 16 17 18 16 15 14 14 14 14 13 12 13 13 11 10 10 10 10 12 14 16 16 15 16 18 19 19 20 20 19 16 15 16 16 14 14 15 16 16 13 12 14 15 14 14 14 14 16 15 12 11 16 18 15 13 13 14 13 12 10 9 13 15 12 12 14 16 16 16 16 15 15 16 18 18 16 16 17 18 17
20 19 19 19 19 19 19 18 18 19 18 15 14 15 15 14 14 13 12 12 11 9 10 10 10 10 11 13 17 17 13 13 18 19 19 20 20 19 17 17 16 16 15 15 14 14 16 17 15 15 15 13 13 13 13 15 15 11 10 13 16 16 14 14 15 14 12 12 11 13 15 13 11 13 15 15 16 15 15 15 16 17 17 15 15 17 16 14
20 19 19 20 20 19 19 19 19 19 19 17 16 16 15 15 14 13 13 13 11 10 10 10 10 12 13 13 18 19 14 13 16 18 20 21 21 19 17 17 17 16 17 17 15 11 12 16 16 16 15 13 13 14 14 15 15 11 11 13 13 14 14 13 14 14 13 13 12 13 15 14 10 12 14 15 17 16 14 15 15 16 16 15 16 17 14 12
20 20 20 20 19 18 18 19 20 20 19 18 18 17 16 15 14 14 15 14 12 11 10 10 11 12 14 14 17 19 18 16 15 17 20 20 21 21 18 17 17 17 17 18 18 14 11 13 15 16 16 13 11 12 12 15 14 10 11 13 12 12 13 13 13 13 13 13 14 14 15 14 12 12 14 14 15 15 14 13 14 15 15 15 16 16 14 12
20 20 20 19 18 17 17 17 17 17 18 18 18 17 17 16 16 17 16 13 12 12 12 12 12 12 14 15 16 18 19 17 16 18 19 19 21 21 19 18 17 16 16 17 19 18 14 14 15 17 17 13 11 12 13 15 15 12 12 13 12 12 12 13 13 13 13 12 13 14 14 14 13 11 11 10 11 13 13 13 12 12 13 14 16 17 15 13
20 20 20 20 19 18 19 18 16 16 17 17 18 18 17 17 18 19 17 13 11 12 13 13 13 13 15 15 15 17 19 17 18 19 19 19 20 21 20 19 17 17 17 17 18 18 16 16 16 17 17 16 14 13 14 15 15 14 13 13 13 12 11 12 12 13 13 12 11 13 13 14 13 10 10 9 10 11 12 12 12 12 13 14 15 15 15 13
20 20 20 19 19 18 19 19 18 18 17 17 18 18 18 19 20 20 19 15 10 9 11 12 13 14 15 15 15 17 19 18 18 19 20 20 19 20 22 21 19 18 16 16 17 17 17 17 18 18 17 17 16 14 14 14 15 15 15 15 14 12 11 12 12 12 13 12 11 11 11 13 13 11 12 12 11 12 12 11 12 12 13 13 12 13 13 13
21 20 19 18 17 17 18 18 18 17 17 17 18 19 21 22 20 19 19 19 15 11 12 13 14 14 15 16 15 16 18 18 18 19 20 21 20 20 21 22 22 20 17 16 16 17 17 17 19 19 16 17 19 17 14 14 15 16 16 15 15 13 12 11 11 11 11 11 12 12 11 13 13 12 12 12 12 13 12 11 12 12 12 11 11 11 11 12
21 19 18 17 16 17 17 18 17 17 17 18 18 20 23 22 20 19 19 19 18 16 15 15 15 16 16 16 16 17 18 18 19 20 20 21 21 20 20 21 22 21 18 17 15 16 18 16 17 21 18 17 19 19 16 15 15 16 16 16 15 14 13 11 9 9 9 9 11 12 12 12 11 12 13 12 12 13 12 12 12 12 12 12 11 11 11 11
19 17 16 16 16 15 16 18 17 17 18 19 20 22 23 21 20 19 17 17 19 19 17 17 17 17 17 16 16 17 18 18 19 20 20 21 21 21 21 20 21 22 20 17 15 15 17 14 14 19 20 18 18 19 18 17 14 14 16 17 15 13 14 12 10 10 10 11 11 12 13 12 11 13 15 14 13 13 13 13 13 12 13 13 12 12 12 12
17 16 16 15 15 15 16 18 18 18 19 20 22 23 22 22 21 20 18 17 18 18 18 18 17 18 18 17 16 17 18 18 19 19 19 20 20 21 22 20 20 22 21 19 16 14 15 14 13 17 20 19 18 18 19 19 16 13 15 16 14 13 13 13 11 11 12 14 13 12 14 13 12 13 14 15 15 14 13 13 13 13 13 13 12 12 12 12
17 16 16 15 15 16 17 18 18 18 19 21 23 24 22 22 22 22 20 18 17 18 19 19 17 17 18 17 16 18 19 17 17 18 19 19 18 18 20 20 20 22 22 20 17 14 15 15 14 17 19 19 18 18 18 19 19 17 14 13 14 14 14 14 13 12 13 13 13 14 14 14 14 13 13 15 15 14 14 14 14 14 13 12 12 12 12 12
16 15 14 14 15 17 16 17 18 19 20 21 23 23 23 23 23 22 22 20 19 19 20 20 19 18 18 17 16 17 19 18 17 17 18 18 17 17 16 17 18 19 20 20 18 16 15 15 14 15 17 17 18 19 19 18 19 20 17 14 15 14 13 14 14 14 14 13 13 13 14 13 12 11 13 15 14 13 13 14 14 14 14 13 12 12 12 12
15 14 13 14 15 15 15 16 18 19 20 21 22 21 22 23 23 23 22 20 19 19 19 19 20 19 17 18 17 16 17 17 17 16 16 16 16 17 17 16 16 17 17 18 18 17 16 16 15 14 15 17 17 19 20 19 18 20 19 17 17 15 14 14 13 13 13 13 12 13 13 10 8 9 12 13 12 12 11 12 12 12 13 12 11 11 11 11
14 13 12 14 15 14 14 15 17 18 19 20 21 21 21 21 22 23 23 22 21 21 20 19 20 19 18 18 18 17 17 16 15 16 16 15 14 15 17 17 16 16 17 18 18 17 16 17 17 16 15 17 17 17 20 20 18 18 19 19 18 17 15 15 15 14 14 14 12 12 11 9 8 9 10 12 12 12 11 11 10 10 10 10 10 10 10 10
15 13 13 15 15 14 14 15 16 17 18 19 20 21 20 20 20 21 22 23 22 22 21 20 20 20 19 18 17 17 18 16 16 17 17 17 15 14 15 17 16 16 16 17 16 16 16 16 17 18 18 17 16 15 16 18 18 17 17 18 18 18 17 17 15 15 15 15 14 14 13 10 10 10 10 12 13 12 12 12 11 10 10 10 10 10 10 9
14 13 14 15 15 14 15 15 15 16 17 18 18 19 19 19 20 21 21 21 21 22 22 21 21 21 20 19 17 17 17 16 17 16 15 15 15 14 15 15 15 16 15 15 15 15 16 16 17 18 18 17 17 16 16 18 18 19 18 16 17 17 17 17 15 14 15 15 15 15 14 12 11 11 11 12 12 11 12 12 12 11 10 10 10 10 9 9
14 14 14 15 15 14 14 14 14 14 15 17 17 18 18 18 19 20 21 20 19 20 21 22 21 21 21 20 19 19 17 16 16 15 14 14 13 14 15 15 15 16 16 16 16 16 16 16 17 17 16 17 18 17 17 18 19 20 19 18 18 18 18 17 15 14 15 15 15 14 13 11 12 13 12 13 12 11 13 14 13 12 11 11 10 10 9 8
15 14 14 14 13 11 10 11 13 13 13 14 16 16 17 16 17 17 18 18 18 18 19 20 20 20 21 21 21 21 19 17 16 16 15 15 13 13 15 15 16 17 16 15 16 16 17 17 18 18 17 16 15 14 13 15 17 19 20 18 18 20 20 18 17 16 16 17 16 14 12 11 11 12 13 13 13 13 13 14 13 12 11 11 11 10 9 9
16 15 14 12 10 7 7 8 10 12 12 11 13 14 14 14 14 16 16 16 16 17 17 18 19 20 21 21 21 22 21 20 19 17 16 16 14 13 14 15 16 16 14 14 15 16 16 16 18 21 20 17 14 13 11 11 13 17 20 20 17 18 19 18 17 17 17 17 16 12 11 12 10 10 11 12 12 13 12 12 11 11 11 11 11 10 10 9
15 14 13 10 7 6 6 6 5 8 10 10 10 10 12 13 12 14 16 15 15 16 17 17 18 19 20 20 21 21 21 20 20 19 17 16 14 13 13 14 14 14 14 15 16 15 14 16 17 20 21 20 18 16 14 12 12 12 14 15 15 15 16 16 16 16 15 16 14 10 11 12 11 11 11 10 11 12 11 11 11 11 11 11 11 11 11 10
14 12 11 9 8 8 8 7 3 3 5 7 7 7 9 11 10 10 13 15 14 14 15 16 17 18 19 19 19 20 20 20 20 19 18 17 15 14 14 14 14 16 16 16 16 15 15 16 16 18 20 21 21 20 19 16 15 13 12 11 11 11 12 13 13 13 12 13 12 10 11 10 10 11 11 10 10 11 10 10 11 12 12 12 12 12 12 11
13 11 11 10 10 10 10 7 4 3 4 3 4 3 5 7 8 8 9 12 13 11 12 14 15 15 17 18 18 17 17 18 18 17 17 17 16 15 15 14 14 17 17 16 15 15 15 14 15 16 18 19 20 22 22 21 19 18 18 16 13 11 11 11 11 11 11 11 11 11 11 9 9 10 11 11 11 10 10 12 12 12 12 12 13 13 13 13
13 11 10 10 11 11 11 9 5 4 4 3 3 3 2 4 6 6 6 7 9 9 9 10 11 11 12 14 15 15 14 14 14 15 16 17 16 15 15 14 14 16 17 16 15 16 15 13 13 14 15 16 17 18 21 22 22 21 21 20 18 16 15 14 13 12 12 11 11 12 12 10 10 10 11 11 11 10 10 11 11 11 11 11 11 12 13 13
13 11 9 9 10 11 11 10 6 5 5 4 3 3 2 2 3 5 5 5 5 7 7 8 8 9 10 11 12 13 13 14 14 15 16 17 17 16 16 15 14 16 17 17 16 16 16 14 13 14 14 14 14 15 16 18 20 21 23 23 22 20 18 16 15 14 14 13 13 14 13 12 12 11 10 11 11 10 10 10 10 10 10 10 10 10 11 11
13 11 9 9 10 10 10 10 8 6 5 4 4 4 3 3 2 4 5 5 3 4 5 6 7 9 9 9 11 12 13 14 15 15 16 17 17 17 17 17 16 16 17 17 17 16 16 15 15 15 14 13 14 14 13 13 16 19 21 22 22 22 20 19 17 16 16 16 15 15 14 13 13 13 12 12 12 11 11 11 11 11 10 10 10 11 10 9
Wind_Direction
296 295 294 294 293 292 291 290 288 287 287 286 284 283 283 283 283 282 283 282 282 281 281 281 280 279 276 275 273 272 271 268 265 260 255 254 252 249 247 247 243 237 235 235 233 230 229 231 231 230 232 233 234 235 233 232 234 235 237 238 239 238 238 240 235 231 237 240 246 252 243 247 250 238 241 238 234 232 224 225 227 223 226 227 217 198 196 205
297 296 296 295 294 293 292 291 289 288 287 286 284 283 281 281 281 281 282 282 281 281 281 281 280 280 278 276 274 273 271 268 265 261 256 251 249 247 245 244 239 233 231 231 230 228 228 229 229 229 231 233 232 233 232 230 232 234 235 236 237 236 237 241 240 237 238 244 253 250 241 244 250 242 236 235 230 224 218 220 222 221 223 222 211 202 202 205
297 298 297 296 296 295 294 292 291 289 287 286 284 282 281 279 279 279 280 280 281 281 281 281 280 280 279 277 275 274 271 270 266 260 254 248 244 243 244 240 235 231 229 230 230 228 229 229 228 228 230 232 231 230 230 229 230 232 233 236 236 235 240 243 244 245 242 247 253 247 242 242 244 240 233 231 225 221 218 217 219 220 221 218 208 205 205 206
297 298 299 298 298 297 296 295 293 291 289 287 284 282 280 279 278 278 279 279 280 280 280 280 280 279 279 278 276 274 272 270 263 255 249 244 240 239 240 236 231 228 228 232 231 229 230 229 228 228 230 233 231 230 230 228 229 231 233 235 235 236 245 246 243 242 241 244 247 248 246 242 239 236 234 227 220 222 221 217 217 215 214 211 203 203 207 210
296 297 299 299 299 299 298 297 295 293 291 289 286 282 280 278 277 277 277 278 278 278 278 278 279 278 278 277 276 273 270 266 256 249 247 243 239 237 236 232 228 226 228 233 232 229 230 229 228 228 230 234 232 231 232 229 229 233 234 235 237 242 248 246 244 242 241 243 244 245 243 242 239 232 233 228 222 223 221 218 214 209 211 210 205 205 209 214
295 296 297 299 300 300 300 299 298 296 293 291 288 284 280 278 277 276 276 277 277 277 277 277 277 278 278 277 275 268 261 258 254 250 247 242 238 235 234 231 227 226 229 234 230 229 230 228 228 228 230 234 233 232 232 230 229 234 236 235 239 245 246 243 244 242 241 242 240 240 241 245 241 232 230 228 230 225 217 218 213 210 214 215 213 212 213 218
294 295 296 297 299 300 300 300 299 298 295 293 290 286 282 279 277 275 275 275 274 275 275 275 277 277 277 276 271 262 255 257 255 247 244 242 238 234 233 230 226 226 230 232 228 228 229 227 227 228 230 233 235 233 233 232 230 234 237 236 238 241 240 241 245 244 241 241 239 240 243 242 237 235 231 226 232 229 219 221 221 221 219 218 220 219 219 223
295 295 296 297 297 299 300 300 300 299 298 295 292 288 284 280 277 276 274 273 272 273 273 274 275 276 277 275 269 261 255 254 251 245 244 240 236 233 231 229 226 226 230 231 228 228 228 227 227 228 231 233 235 234 233 234 232 233 237 238 239 239 239 241 244 244 242 241 240 241 243 240 235 238 237 230 230 229 227 227 224 225 223 222 224 224 224 227
295 295 296 297 297 298 299 300 300 299 299 297 294 290 286 282 279 276 274 272 271 271 271 272 274 274 274 271 267 263 257 253 249 246 243 238 235 232 229 228 225 227 231 231 229 228 228 229 228 229 233 236 237 236 234 233 232 234 236 238 239 239 239 240 241 241 241 240 240 240 240 239 236 238 242 235 231 229 228 229 225 223 225 227 228 227 227 229
294 295 295 296 297 298 298 299 300 299 299 298 296 292 288 284 280 278 274 272 269 269 269 269 271 272 270 267 263 261 255 253 251 245 239 235 232 230 229 228 226 229 232 230 230 229 229 231 230 232 237 240 240 237 233 231 232 237 237 236 238 239 239 239 239 239 239 238 238 239 240 238 235 237 239 235 231 229 227 228 227 224 227 232 229 228 230 231
293 293 294 295 296 297 297 298 299 299 299 299 298 295 291 287 283 279 276 272 269 267 267 267 269 269 268 265 260 258 254 253 251 244 236 232 230 229 230 230 229 231 231 230 231 230 230 232 234 234 236 240 239 237 235 231 233 240 240 238 237 238 239 239 238 237 237 237 237 238 241 239 234 233 237 236 229 226 228 228 227 227 229 231 229 229 233 233
291 292 293 294 294 295 296 296 297 298 299 299 298 296 292 288 286 282 277 272 268 266 264 265 266 266 267 264 257 255 255 252 248 243 235 230 230 230 230 232 231 231 231 232 233 231 230 232 235 232 233 239 237 237 237 232 234 240 239 239 237 236 239 238 236 235 235 237 235 236 240 237 233 232 235 235 226 224 228 227 226 228 230 231 230 232 235 233
290 290 291 292 292 293 294 294 295 296 297 298 298 297 293 289 287 283 279 273 268 265 263 263 264 264 265 263 258 253 252 250 245 241 235 231 231 231 232 234 232 232 232 233 235 232 228 231 231 230 235 240 234 236 238 231 233 237 236 238 238 237 237 234 232 232 233 235 231 230 237 237 234 234 235 232 224 225 227 226 226 226 230 232 230 233 234 232
290 290 290 290 291 291 292 292 293 294 295 296 297 296 293 290 286 284 280 273 268 264 262 262 262 262 260 261 260 254 251 248 242 237 233 230 230 231 232 234 233 233 233 234 236 230 227 230 229 232 237 236 235 237 235 231 231 234 234 234 235 237 237 231 228 229 229 229 226 227 238 240 237 235 232 227 221 225 228 226 226 225 228 232 231 234 233 232
289 290 289 289 289 290 290 290 291 291 292 294 295 295 293 290 286 283 279 274 269 264 262 261 259 259 261 261 258 252 250 246 240 235 231 228 229 231 231 231 231 231 231 233 234 228 225 227 225 231 234 230 237 237 230 231 230 230 231 231 230 233 238 230 221 222 224 224 221 227 238 240 244 242 227 218 217 225 228 225 226 226 227 230 231 233 232 234
288 289 289 289 289 289 289 289 289 289 290 292 293 294 292 289 286 283 279 273 268 263 259 257 255 255 262 263 254 250 248 242 237 231 228 227 229 231 229 227 228 227 228 229 230 226 224 224 223 231 233 226 231 233 227 228 227 227 228 230 228 226 232 228 215 216 221 224 222 227 235 235 244 242 213 208 217 225 228 225 226 228 227 230 232 232 234 236
288 288 288 288 288 288 288 288 288 288 288 290 291 292 290 287 285 282 280 272 267 262 255 256 257 254 257 259 255 251 244 238 233 226 224 226 228 229 226 224 224 222 222 222 223 221 220 221 223 229 233 227 225 226 227 226 224 224 224 229 229 224 225 223 215 217 221 225 224 223 230 233 234 223 206 213 222 225 228 227 226 228 228 231 232 232 235 235
287 287 287 286 286 286 287 287 287 287 287 288 289 288 288 286 282 279 278 272 266 259 254 255 254 253 253 249 250 250 239 234 229 222 221 223 225 226 223 221 219 215 215 216 218 217 216 219 222 225 227 224 221 221 223 224 223 223 221 224 227 223 221 221 219 218 217 220 224 223 226 231 230 223 217 221 225 227 231 229 227 227 229 231 231 232 234 232
287 287 286 286 285 285 285 285 286 286 286 287 285 284 284 283 279 275 273 268 261 256 258 250 238 248 257 245 244 247 239 232 226 222 220 220 222 222 218 217 214 210 211 213 214 215 215 217 221 223 222 220 220 219 221 228 233 230 225 221 224 222 219 222 220 214 214 218 224 226 227 228 231 232 227 226 231 234 233 229 226 227 230 232 231 231 232 229
287 286 285 285 284 284 284 284 284 284 284 284 283 280 279 280 280 276 267 259 256 257 263 254 241 248 256 248 245 240 235 231 226 221 218 216 217 215 212 211 209 209 212 212 210 212 215 219 220 221 222 221 220 221 225 239 247 241 231 221 222 225 219 219 217 212 220 224 224 227 231 231 231 235 232 229 233 234 232 228 225 227 230 231 231 229 228 226
286 285 284 284 283 283 282 282 281 281 281 279 277 274 275 281 285 282 276 267 261 258 259 256 249 250 250 248 244 236 233 231 225 220 215 213 212 210 208 207 207 210 214 212 209 211 218 223 222 221 225 224 220 222 228 238 238 233 233 225 222 225 220 216 216 216 222 227 230 229 232 233 232 234 228 225 232 233 230 227 225 227 228 230 230 228 224 222
284 284 283 282 282 281 281 280 279 278 277 273 270 268 271 280 282 281 282 278 272 264 258 254 251 250 248 245 240 235 234 227 221 218 211 209 209 208 206 206 209 210 212 212 210 213 220 226 225 222 224 223 220 224 228 230 229 227 229 229 225 222 218 213 216 226 226 226 233 232 231 234 232 228 222 223 231 231 226 225 225 225 226 228 228 225 222 219
284 283 282 281 281 280 279 278 277 275 272 266 263 263 267 276 279 280 280 278 275 269 260 252 247 246 245 240 233 231 230 224 219 214 207 207 209 208 208 207 211 212 211 213 213 215 222 226 224 222 221 220 222 227 229 228 227 226 225 226 225 220 217 217 223 230 229 228 234 235 234 233 228 224 224 226 228 226 221 221 223 224 225 226 224 221 218 216
285 283 282 282 281 280 279 277 274 270 265 261 261 261 266 272 276 280 280 276 275 270 258 250 247 244 241 236 228 225 225 223 220 212 206 208 208 209 212 210 212 215 213 214 217 222 228 223 216 217 217 220 225 226 225 226 224 224 225 225 224 222 223 226 227 226 226 229 234 238 237 229 221 222 225 224 225 222 219 219 221 221 222 222 220 218 216 214
285 283 283 283 282 281 281 277 269 264 262 260 261 262 263 266 270 278 279 275 273 265 251 245 245 243 236 229 225 223 223 222 221 214 207 209 209 209 213 213 215 217 215 215 219 226 230 220 212 218 221 221 224 223 221 222 223 223 224 225 228 229 227 225 219 219 227 229 226 228 233 226 219 222 221 219 222 221 219 220 220 220 220 219 218 217 214 214
286 284 284 283 282 282 279 271 263 264 264 260 259 260 260 262 268 274 274 270 268 257 242 237 239 238 230 226 221 218 221 222 220 214 208 210 210 210 214 215 215 219 219 218 221 226 225 220 221 225 224 221 223 224 220 218 222 225 220 220 228 233 227 222 217 219 229 233 223 222 229 226 218 220 215 212 218 219 218 220 221 220 220 218 218 217 215 213
287 285 285 283 282 281 274 268 267 266 264 260 257 258 260 261 266 269 266 265 261 246 233 232 235 234 228 224 213 211 222 220 213 212 209 210 211 211 217 216 213 219 222 220 223 225 222 223 223 219 219 219 220 222 217 213 219 228 217 212 221 228 226 225 225 226 230 236 231 223 224 223 221 219 209 207 215 215 215 220 222 220 217 217 219 219 215 211
288 286 286 284 281 278 270 268 268 262 259 262 261 259 260 261 261 259 258 261 254 237 234 236 237 234 228 220 209 213 226 213 207 210 208 210 210 210 217 218 216 218 219 219 221 220 221 224 221 215 217 218 219 221 215 211 217 226 220 212 217 224 225 226 229 232 232 235 234 223 218 222 227 216 204 207 216 215 215 218 218 217 216 217 218 216 213 209
289 287 286 284 282 276 268 266 264 259 259 264 262 257 257 257 254 251 251 254 249 240 241 238 236 231 224 217 212 216 222 212 210 210 206 209 212 212 218 220 221 222 218 220 223 220 221 223 219 214 214 216 221 222 213 209 214 218 221 218 217 222 226 227 229 231 232 235 235 223 216 220 224 212 208 217 220 217 219 218 213 212 214 214 217 217 213 210
290 288 287 285 281 274 268 264 262 260 259 260 258 254 252 249 246 245 244 247 249 241 236 234 232 225 217 214 215 218 220 217 214 209 205 209 212 215 222 222 224 227 221 221 226 227 226 223 219 214 214 220 225 221 211 209 213 215 219 219 217 221 225 227 229 231 232 233 232 224 219 223 225 219 220 223 218 212 212 211 205 206 210 213 219 222 218 213
291 289 287 282 277 272 268 265 262 260 257 255 254 249 245 243 241 243 240 246 253 239 228 231 227 218 214 215 215 215 218 218 212 207 207 209 211 215 221 221 222 225 222 222 226 229 228 225 221 217 219 226 227 221 216 215 218 220 220 219 217 219 222 225 227 227 231 233 230 224 219 223 228 221 215 215 210 206 205 204 203 208 217 219 221 223 220 215
293 290 286 279 274 269 265 263 263 262 256 254 250 241 239 239 239 241 239 243 249 234 227 229 224 219 217 218 217 213 215 216 212 211 212 212 212 214 218 220 218 220 222 222 224 226 227 224 219 218 221 224 224 220 215 216 219 219 219 219 218 218 219 224 226 225 229 233 230 223 217 222 227 215 207 210 207 206 207 207 209 214 219 220 220 221 219 218
294 291 286 279 273 267 263 262 263 261 256 251 245 237 236 239 238 238 235 234 236 231 230 227 222 221 218 220 220 213 214 216 211 213 215 214 215 215 218 220 218 220 224 223 222 222 224 224 219 217 218 218 221 220 213 212 215 216 217 218 219 219 219 223 225 226 230 227 221 220 220 225 226 212 204 207 206 209 212 210 210 210 211 215 218 218 218 222
295 290 285 278 272 267 263 262 261 259 252 244 238 234 234 239 239 236 234 232 234 237 234 229 224 224 223 225 224 215 216 218 213 213 214 214 218 218 218 220 219 220 224 224 223 221 222 224 219 217 217 214 217 222 220 215 214 217 219 221 224 225 224 228 229 229 231 224 214 215 223 229 227 216 212 213 212 215 216 212 211 214 216 219 221 223 223 224
296 289 283 277 273 268 262 261 259 256 249 238 235 234 234 238 238 236 236 235 236 236 232 231 231 230 229 228 226 220 220 220 215 216 217 216 219 220 219 221 219 219 221 223 224 223 226 228 220 217 219 216 216 221 225 223 219 218 220 224 227 228 231 236 235 231 232 230 220 217 226 233 226 218 219 221 220 219 219 216 216 219 222 223 225 228 231 230
297 290 284 277 272 270 265 261 257 253 246 237 235 237 237 238 237 236 238 235 237 238 233 231 231 231 231 226 223 221 220 222 219 217 219 219 220 221 220 221 219 218 220 222 222 223 226 230 220 214 217 219 218 219 222 224 223 220 222 226 228 231 237 241 235 226 229 237 232 225 230 230 225 225 222 220 224 223 220 220 221 224 226 227 229 231 234 235
297 291 285 278 274 275 269 262 256 250 244 238 237 240 239 239 237 237 239 237 239 240 236 233 230 229 230 227 223 220 217 220 221 220 221 220 221 221 220 221 220 218 221 223 224 224 225 229 221 213 216 220 221 224 225 225 225 223 224 228 229 231 236 240 237 227 228 236 237 234 233 230 233 233 220 217 223 222 220 221 224 227 227 229 231 230 231 234
299 292 286 282 281 280 271 261 254 247 242 239 240 242 241 240 238 236 238 238 238 236 235 235 231 228 229 227 224 221 217 219 223 224 222 219 222 223 220 220 218 218 220 221 224 224 224 230 225 219 221 220 219 225 228 225 225 228 230 229 227 230 231 231 236 234 232 237 238 236 235 237 243 234 215 219 224 219 221 224 222 225 227 229 230 227 228 231
302 294 287 287 288 283 272 258 251 245 242 241 242 242 241 241 239 236 236 237 236 235 235 234 231 229 229 227 224 220 219 220 220 222 223 221 223 224 222 219 214 214 218 220 223 226 226 230 227 220 224 221 217 223 226 224 223 227 234 233 227 232 234 232 233 235 235 237 236 236 235 238 243 230 219 227 224 217 223 224 219 222 226 227 226 224 225 227
306 298 293 294 293 286 272 256 248 244 242 241 242 242 240 240 239 236 234 235 235 233 233 233 230 229 229 228 225 220 220 223 220 222 229 229 225 221 221 221 215 212 216 219 223 227 226 228 227 223 225 224 221 222 224 225 223 224 229 231 228 230 233 234 235 237 239 238 234 235 234 232 238 233 223 221 217 217 221 217 214 216 217 219 221 222 224 226
310 302 300 302 297 286 272 258 249 246 243 242 242 242 240 239 237 235 233 234 235 232 233 235 231 227 227 226 224 220 221 226 223 221 226 228 227 224 223 225 222 217 218 221 223 226 225 226 229 228 227 227 227 226 225 227 229 226 225 228 230 230 230 234 235 235 238 239 237 238 234 228 238 239 222 212 217 221 217 212 211 209 209 216 221 221 222 222
314 308 307 308 301 285 273 263 253 247 244 242 241 239 238 237 236 236 234 233 233 231 229 230 229 227 227 227 227 224 222 226 227 224 224 226 231 232 226 224 223 220 221 221 220 223 226 228 231 230 229 230 231 230 228 228 231 231 230 230 230 230 232 236 238 236 237 240 242 243 240 233 236 237 226 220 223 222 217 214 215 215 216 220 219 217 216 215
323 318 312 312 304 285 273 265 255 247 243 243 243 239 237 236 235 235 234 231 230 228 225 225 227 227 227 227 229 227 223 226 229 227 223 223 226 225 219 220 223 221 221 220 219 223 225 226 232 233 233 235 236 234 233 231 230 231 233 232 231 231 232 236 240 240 240 242 241 240 239 234 230 232 229 221 216 218 221 217 213 213 212 211 208 205 205 207
330 323 316 316 308 288 273 266 256 250 245 241 241 241 237 236 235 233 232 229 227 226 224 224 227 228 227 227 228 228 227 227 227 225 221 218 217 216 218 223 225 223 225 226 223 224 225 226 231 233 233 233 232 231 229 228 228 230 232 233 234 235 235 237 239 237 238 241 241 239 238 234 230 228 224 220 215 216 216 207 201 201 200 202 205 201 202 207
333 328 322 319 315 299 280 268 256 249 246 240 237 238 236 235 233 231 230 227 225 225 224 225 227 227 228 229 228 229 230 228 227 226 227 224 220 221 225 226 226 226 226 222 220 224 228 229 230 233 234 231 228 226 228 231 230 229 230 233 235 235 237 240 239 237 239 240 243 246 240 233 232 226 218 215 212 208 205 201 201 206 206 208 211 209 210 214
341 337 333 329 326 324 309 286 259 242 240 238 233 233 232 230 228 225 223 222 223 225 225 226 227 227 228 230 228 229 230 228 227 228 230 228 226 228 231 226 225 224 217 212 216 223 229 229 230 232 233 232 232 234 243 250 242 229 227 230 233 234 236 239 239 240 242 240 241 245 232 221 221 218 213 211 209 209 210 210 211 216 217 215 215 216 217 218
350 348 349 350 350 350 341 324 279 236 230 230 229 230 228 225 224 221 220 220 223 227 227 226 227 226 227 229 228 229 230 228 228 229 229 229 226 226 227 225 224 221 215 215 218 222 230 232 231 231 231 230 234 239 248 256 250 236 227 225 227 231 232 233 235 241 245 240 237 235 224 216 211 211 213 210 210 215 219 220 221 221 219 217 216 218 218 218
2 6 13 14 13 13 5 357 341 212 206 208 215 226 220 214 216 218 219 218 219 226 228 226 228 226 225 227 227 228 228 228 228 228 227 228 228 225 224 224 223 220 218 219 220 226 236 236 231 233 233 232 233 236 243 249 246 241 232 225 227 232 229 225 231 240 240 235 232 225 219 219 215 214 217 215 214 218 220 225 228 223 219 219 220 222 221 220
13 22 31 32 29 27 23 22 43 112 131 151 180 200 199 197 202 211 217 214 213 222 225 221 223 225 223 225 226 224 224 225 224 224 226 229 230 227 225 225 222 218 220 222 223 229 237 235 231 233 235 234 234 233 236 241 244 243 239 237 239 239 233 232 237 242 235 226 222 212 208 217 223 220 220 220 221 221 222 227 229 227 227 228 226 225 225 226
20 25 33 36 35 34 35 37 60 109 110 109 138 149 159 175 185 192 199 201 204 213 218 212 213 218 217 217 219 219 220 222 221 222 227 230 228 227 228 228 224 221 222 224 225 228 235 236 232 231 233 234 233 231 231 234 240 244 243 243 244 243 243 243 241 240 235 226 220 214 210 217 225 222 218 220 222 221 225 232 238 240 242 243 242 236 229 227
24 28 30 31 32 34 39 46 63 102 102 91 113 136 150 159 170 177 173 174 186 198 209 213 213 212 208 209 215 220 224 228 228 228 230 230 228 229 230 230 231 230 227 226 227 229 233 234 230 229 232 231 226 225 226 228 236 243 244 244 244 243 243 242 236 236 237 234 233 231 223 219 223 225 223 223 223 225 230 236 241 245 248 252 259 253 236 228
24 29 27 25 30 34 42 52 60 77 91 89 96 111 128 142 161 178 177 175 174 182 199 215 218 213 210 213 223 230 233 233 234 233 232 230 228 230 231 231 234 235 230 229 230 230 232 233 230 230 235 233 224 220 220 224 235 243 243 241 239 238 239 238 236 237 239 239 239 236 227 222 226 230 230 230 233 237 240 242 243 246 249 253 260 259 250 244